Location: Saint-Just
(44.3042°N, 4.6121°E)
Time: 05:35:50
(UTC+00:00)

Daily predictions for brighter satellites

Satellite Brightness Start Highest point End
(mag) Time Altitude Azimuth Time Altitude Azimuth Time Altitude Azimuth
Cosmos 2360 Rocket 4.3 03:22:34 22° ENE 03:22:34 22° ENE 03:25:13 10° NE
FALCON 9 R/B 4.2 03:58:23 16° SSE 03:58:23 16° SSE 03:59:47 10° SSE
SJ 16-02 3.7 03:59:59 21° ENE 03:59:59 21° ENE 04:02:58 10° ESE
BREEZE-M DEB (TANK) 3.9 04:13:17 69° NNW 04:14:01 75° NNE 04:34:08 10° ESE
Meteor 2-5 Rocket 4.2 04:14:15 54° NE 04:14:54 58° ENE 04:20:28 10° SSE
Cosmos 1844 Rocket 3.0 04:15:58 62° E 04:15:58 62° E 04:21:02 10° SE
Cosmos 2333 Rocket 3.7 04:14:22 10° SSE 04:19:24 34° ESE 04:24:27 10° NE
ADEOS 3.6 04:25:59 10° NNE 04:31:14 76° ESE 04:31:39 71° SSE
Meteor 2-11 Rocket 4.4 04:35:23 65° NNW 04:35:23 65° NNW 04:40:46 10° N
SKYMED 2 4.2 04:30:42 10° SSE 04:34:53 53° ENE 04:34:53 53° ENE
Cosmos 2219 Rocket 3.3 04:32:16 10° S 04:37:30 43° ESE 04:42:45 10° NE
COSMOS 2428 4.1 04:33:08 10° S 04:38:19 37° ESE 04:43:29 10° NE
Cosmos 2233 Rocket 3.8 04:35:34 10° S 04:41:52 82° W 04:48:08 10° N
Cosmos 2333 4.3 04:41:08 21° SSW 04:44:58 70° ESE 04:50:34 10° NNE
Cosmos 44 3.4 04:48:07 69° SW 04:48:07 69° SW 04:53:20 10° SSE
METEOR-M 4.2 04:43:29 10° N 04:48:02 59° NNW 04:48:02 59° NNW
SL-16 R/B 3.7 04:55:44 21° NNW 04:55:44 21° NNW 04:58:12 10° N
USA 215 4.4 04:50:58 10° ENE 04:56:25 29° N 04:58:40 24° NNW
CZ-4B R/B 3.1 04:53:33 10° NNE 04:57:06 57° E 05:00:40 10° S
deb Chang Zheng 4 3.5 04:54:48 10° NNE 04:59:04 78° ESE 05:03:18 10° S
Cosmos 1932 4.4 04:57:35 27° SW 05:01:26 82° NW 05:07:56 10° NNE
Cosmos 2322 Rocket 3.4 05:03:54 25° NNW 05:03:54 25° NNW 05:06:57 10° N
Meteor 1-24 Rocket 3.5 05:00:43 30° NNW 05:03:28 72° W 05:09:00 10° S
Cosmos 2360 Rocket 2.4 05:04:23 47° NW 05:04:23 47° NW 05:09:43 10° NNE
USA 276 3.1 05:06:02 46° E 05:06:02 46° E 05:08:24 10° ESE
IRIDIUM 106 4.2 05:01:36 10° S 05:06:49 90° W 05:12:04 10° N
Cosmos 1758 3.8 05:04:13 10° S 05:08:10 60° E 05:12:11 10° NNE
Cosmos 1892 Rocket 3.8 05:07:07 14° N 05:10:54 69° E 05:15:15 10° SSE
Cosmos 1464 Rocket 4.3 05:06:16 10° S 05:12:19 65° E 05:18:23 10° NNE
SAR-Lupe-4 3.5 05:12:29 10° SSE 05:16:04 85° ENE 05:17:07 44° N
Cosmos 990 Rocket 4.2 05:13:55 14° NNW 05:18:18 68° ENE 05:23:25 10° SSE
COSMO-SKYMED 1 2.8 05:18:51 10° S 05:23:01 46° W 05:23:31 44° WNW
GEOS 3 Rocket 4.1 05:20:37 10° S 05:25:38 41° WSW 05:27:19 32° W
Cosmos 1844 4.0 05:23:43 32° WNW 05:25:46 45° WSW 05:31:13 10° S
SAR-Lupe-1 3.9 05:24:05 10° S 05:27:38 70° WSW 05:28:57 36° NNW
SJ-7 4.5 05:29:14 10° NNE 05:33:27 82° E 05:37:35 10° S
Cosmos 1898 Rocket 3.5 05:30:05 10° NNW 05:35:15 82° ENE 05:40:25 10° SSE
Lacrosse 5 rocket 3.2 05:34:21 15° NNW 05:36:09 20° NNE 05:38:59 10° ENE
Cosmos 1867 4.3 05:35:55 29° WNW 05:37:25 33° NW 05:42:23 10° NNE
Cosmos 1470 3.0 05:33:47 10° SSW 05:37:27 41° WNW 05:41:08 10° N
SJ 16-02 1.7 05:37:01 31° WNW 05:38:23 40° WSW 05:42:28 10° S
Okean 1-7 Rocket 3.6 05:33:48 10° N 05:38:24 88° E 05:42:55 10° S
BREEZE-M DEB (TANK) 2.6 05:38:45 33° N 05:38:45 33° N 05:40:38 10° ENE
Cosmos 1763 Rocket 3.4 05:38:14 10° SSW 05:43:22 83° WNW 05:48:37 10° NNE
Meteor PRIRODA 4.0 05:40:03 10° N 05:43:26 38° WNW 05:46:48 10° SW
Cosmos 1689 Rocket 2.4 05:40:51 10° S 05:43:37 41° W 05:43:40 41° W
Cosmos 921 Rocket 2.8 05:39:32 10° SSW 05:43:51 83° WNW 05:48:07 10° NNE
YAOGAN 6 2.5 05:40:32 10° N 05:44:13 79° WNW 05:47:54 10° SSW
Cosmos 841 Rocket 4.4 05:40:42 10° S 05:45:39 52° ESE 05:50:38 10° NNE
Cosmos 1544 Rocket 3.5 05:42:23 10° S 05:46:43 85° E 05:51:03 10° N
Cosmos 2034 Rocket 4.1 05:40:32 10° S 05:46:54 85° E 05:53:19 10° N
ERS-2 3.1 05:45:32 10° SSW 05:48:37 26° W 05:48:37 26° W
PSLV R/B 4.3 05:46:37 10° S 05:50:28 40° W 05:53:40 14° NNW
Cosmos 1356 Rocket 4.0 05:48:27 10° SW 05:52:04 31° WNW 05:55:47 10° N
BREEZE M DEB (TANK) 2.1 05:52:14 29° WSW 05:52:35 31° SW 05:54:31 10° SSE
Cosmos 1461 3.6 05:48:45 10° SSW 05:53:22 66° ESE 05:58:06 10° NE
Cosmos 1400 Rocket 4.1 05:50:27 10° SSE 05:54:17 44° E 05:58:13 10° NNE
Cosmos 2084 3.5 05:50:24 10° SW 05:54:33 56° NW 05:58:51 10° NNE
SL-8 R/B 3.9 05:52:30 22° WNW 05:55:36 64° NNE 06:00:24 10° E
CZ-4B R/B 4.2 05:50:46 10° NNE 05:56:19 52° E 06:01:47 10° S
MOS 1 Rocket 4.0 05:53:28 10° SSW 05:58:11 35° W 06:02:42 10° NNW
Cosmos 2278 Rocket 2.3 05:52:53 10° NNW 05:58:36 81° ENE 06:04:17 10° SSE
Cosmos 1844 Rocket 3.9 05:57:41 18° W 05:58:48 19° W 06:02:37 10° SW
Cosmos 2322 4.3 05:56:40 10° WSW 06:01:52 35° NW 06:07:06 10° N
Cosmos 2333 Rocket 2.6 05:58:21 10° SW 06:03:35 38° NW 06:08:52 10° NNE
Cosmos 1726 2.9 06:01:25 10° SW 06:04:40 29° WNW 06:07:57 10° NNW
Nadezhda 4 Rocket 3.9 05:58:45 10° NNW 06:04:52 72° W 06:10:55 10° S
NOAA 6 4.0 06:00:39 10° N 06:05:51 76° WNW 06:11:02 10° SSW
Cosmos 1626 Rocket 3.6 06:02:09 10° N 06:06:38 88° W 06:11:07 10° S
PSLV R/B 3.9 06:03:18 10° N 06:07:05 50° WNW 06:10:56 10° SSW
Cosmos 2237 Rocket 2.4 06:04:20 10° SSW 06:09:58 77° ESE 06:15:40 10° NNE
Cosmos 468 Rocket 4.3 06:05:25 10° SW 06:10:25 46° WNW 06:15:31 10° N
H-2A R/B 3.7 06:07:34 10° NNW 06:10:36 24° WNW 06:13:37 10° SW
Okean O Rocket 2.0 06:09:03 10° NNE 06:13:27 69° ESE 06:17:46 10° S
Cosmos 1455 Rocket 3.7 06:10:21 10° SW 06:14:16 32° WNW 06:18:12 10° N
Cosmos 1814 Rocket 4.3 06:09:54 10° S 06:15:00 70° ESE 06:20:07 10° NNE
BREEZE-M DEB (TANK) 3.3 06:12:35 10° SW 06:15:41 72° SE 06:25:39 10° ENE
Cosmos 1937 Rocket 3.6 06:11:00 10° NNW 06:16:14 61° WSW 06:21:23 10° S
Cosmos 1340 2.7 06:13:16 10° N 06:17:03 86° E 06:20:48 10° S
Cosmos 1953 2.6 06:14:01 10° SSW 06:17:51 44° WNW 06:21:41 10° N
Envisat 3.3 06:13:18 10° N 06:18:05 43° WNW 06:22:52 10° SW
Cosmos 2219 Rocket 2.9 06:16:36 10° WSW 06:21:33 32° NW 06:26:32 10° N
COSMOS 2428 3.2 06:17:19 10° WSW 06:22:34 37° NW 06:27:50 10° NNE
Cosmos 1943 Rocket 4.1 06:19:50 10° N 06:24:31 26° NE 06:29:12 10° ESE
Cosmos 1758 Rocket 4.2 06:21:52 10° N 06:26:21 61° E 06:30:47 10° SSE
CZ-2C R/B 2.6 06:21:24 10° S 06:26:31 62° W 06:31:46 10° NNW
Cosmos 44 Rocket 3.5 06:21:29 10° NW 06:26:44 85° WSW 06:31:57 10° SSE
Cosmos 2228 4.4 06:23:15 10° SSE 06:27:17 43° E 06:31:20 10° NNE
Cosmos 372 Rocket 4.0 06:25:40 10° NNW 06:30:58 87° WSW 06:36:13 10° SSE
DMSP B5D2-2 4.1 06:27:05 10° S 06:32:19 77° WSW 06:37:36 10° NNW
Lacrosse 4 Rocket 3.4 06:31:01 10° S 06:34:49 35° ESE 06:38:45 10° NE
Cosmos 1315 Rocket 4.2 06:33:28 10° SSE 06:37:12 43° E 06:40:57 10° NNE
USA 215 4.0 06:32:22 10° E 06:38:28 44° NNE 06:44:36 10° NW
USA 276 4.0 06:38:56 10° W 06:41:11 18° SW 06:43:25 10° S
Cosmos 1980 3.8 06:36:16 10° SW 06:41:50 59° WNW 06:47:27 10° NNE
NOAA 11 4.2 06:36:25 10° N 06:41:53 72° WNW 06:47:18 10° SSW
Cosmos 2026 Rocket 4.1 06:36:31 10° N 06:42:50 78° W 06:49:12 10° S
CZ-2D R/B 3.8 06:40:44 10° NNE 06:44:31 63° E 06:48:16 10° S
Cosmos 1602 Rocket 3.9 06:40:51 10° NNW 06:45:06 46° W 06:49:21 10° SSW
